RH
50 51 47 42 48 54 63 56 46 36 38 36 36 38 34 37 37 38 40 39 37 36 40 44 44 43 43 42 41 42 42 44 43 44 46 48 49 52 56 59 62 66 76 78
73 52 60 58 54 46 50 52 53 52 53 38 36 35 39 41 41 42 41 36 37 34 34 36 40 43 43 43 43 44 43 43 44 44 44 43 44 47 54 58 59 68 77 81
62 63 56 37 51 48 50 44 46 58 47 37 40 43 45 43 40 37 33 32 36 38 40 42 40 39 40 39 39 38 37 35 34 34 34 36 42 47 51 56 60 66 74 82
88 59 53 26 36 36 47 44 42 41 42 40 42 43 44 38 34 32 39 41 40 36 31 30 32 27 24 24 25 29 33 35 39 41 40 40 40 39 44 54 57 62 68 74
83 86 53 39 36 36 40 45 41 42 46 43 42 41 49 44 47 50 48 39 24 17 15 15 17 18 19 18 17 13 12 11 13 24 40 44 44 46 46 44 51 59 63 69
78 78 59 38 37 35 33 49 44 43 45 42 44 53 57 47 49 36 26 20 18 19 20 20 21 20 20 18 17 13 12 10 9 11 18 29 43 48 50 46 43 50 58 67
84 84 71 46 36 36 38 37 44 41 42 45 52 48 52 50 30 22 22 21 19 18 18 15 10 7 7 6 5 6 7 7 7 9 16 21 32 46 57 57 50 49 57 64
84 84 81 39 42 41 41 45 42 42 45 47 50 50 51 34 28 26 20 17 15 13 12 10 7 6 8 8 8 10 10 10 9 10 13 21 28 39 52 68 65 61 65 70
67 63 43 39 40 41 42 42 44 44 49 51 54 47 30 25 22 18 17 15 12 9 7 7 7 11 17 14 20 28 29 27 22 20 17 23 27 32 51 66 74 69 73 78
48 45 47 40 43 44 41 42 45 47 48 42 31 25 25 21 17 14 14 12 8 9 12 12 12 20 22 25 30 37 43 48 46 44 38 38 33 35 50 63 73 76 75 79
56 46 46 48 45 44 46 46 44 37 28 22 21 22 21 15 13 12 10 8 8 14 21 21 25 27 28 32 45 53 58 61 61 60 58 49 37 44 54 58 70 82 78 78
54 42 44 45 47 48 44 42 34 24 22 22 23 18 14 13 12 10 8 7 10 17 23 21 26 36 37 51 61 70 75 76 76 77 79 83 87 83 69 70 76 76 82 80
45 45 46 44 48 48 44 37 25 21 23 21 16 14 14 13 10 8 7 8 12 22 26 24 29 39 43 63 76 82 85 87 90 93 94 93 90 91 98 80 88 84 87 86
51 51 55 53 53 49 41 28 23 21 18 16 14 12 12 11 10 10 12 12 17 27 24 27 32 30 51 67 79 84 88 87 87 89 92 96 98 99 96 99 95 86 88 93
56 56 53 54 48 36 27 24 21 20 17 14 13 14 14 14 15 15 14 15 23 23 17 22 31 34 64 75 85 89 92 90 97 99 100 100 100 100 100 96 96 94 92 92
59 56 50 47 38 33 31 26 24 19 17 16 15 15 18 18 18 17 16 15 22 19 19 27 29 43 69 84 89 93 97 100 100 100 100 100 100 100 100 99 96 96 95 92
51 42 39 38 35 29 25 21 21 20 20 18 16 17 20 21 23 22 20 18 24 20 25 28 31 48 80 91 98 100 97 96 99 100 100 100 98 97 98 98 97 93 92 96
51 42 33 25 22 20 22 25 25 24 23 22 20 21 23 28 33 31 27 26 26 21 23 26 34 59 81 91 99 98 90 89 92 95 94 94 96 99 97 97 97 97 95 96
42 30 22 21 26 29 29 27 25 24 24 23 25 29 35 37 38 37 34 34 28 27 20 32 43 66 80 94 100 100 98 94 91 94 96 93 92 91 96 98 97 98 98 98
26 32 38 38 40 43 41 34 27 28 29 32 37 41 42 42 42 40 42 38 26 25 32 49 67 91 100 98 99 100 99 97 95 99 100 100 100 100 100 99 98 97 97 99
42 43 50 50 46 49 51 34 31 26 26 32 38 38 38 34 37 48 48 39 21 25 38 53 82 99 100 100 100 99 98 94 99 99 99 100 98 98 100 100 97 97 97 98
42 46 48 43 51 54 33 27 23 25 34 33 29 36 44 42 49 52 37 35 31 32 43 62 83 98 97 94 93 92 90 94 99 98 98 99 98 98 100 100 99 97 97 97
25 26 27 41 46 33 29 34 41 45 46 46 52 52 60 65 64 65 44 24 42 39 52 70 89 92 92 92 92 97 97 97 97 97 97 98 98 98 98 98 97 97 97 96
40 42 42 39 44 49 48 39 50 51 63 61 55 53 62 68 59 48 49 47 46 46 55 74 86 93 93 94 96 96 98 99 99 97 98 99 98 99 96 96 96 97 97 97
46 47 48 48 49 46 48 46 53 48 56 61 56 57 61 65 67 44 44 46 45 48 60 79 94 98 97 98 100 99 98 97 96 96 96 97 99 98 97 96 96 97 97 97
48 48 48 46 50 50 48 53 61 54 67 67 55 55 50 42 42 48 49 49 51 58 73 85 97 99 97 95 98 97 96 96 96 95 96 96 95 96 96 96 97 97 97 97
40 41 44 42 38 41 45 49 55 48 53 71 68 49 51 40 41 46 49 49 55 65 82 96 100 97 100 99 96 96 96 96 96 96 96 96 96 96 96 96 97 96 97 97
Wind_Speed
3 4 3 5 6 8 10 6 7 4 8 6 4 7 4 5 11 11 9 15 21 21 20 20 21 20 19 18 17 18 19 20 22 23 25 26 27 28 28 29 30 31 31 32
4 4 6 6 9 11 12 10 12 8 8 5 11 6 6 10 9 6 12 16 16 17 18 20 20 20 20 20 19 20 20 21 22 23 25 26 28 28 27 28 29 30 33 34
4 4 6 7 8 12 5 5 13 13 8 6 3 7 7 6 6 7 11 13 14 17 19 19 20 20 22 22 21 21 22 22 23 23 25 26 27 27 27 28 28 30 31 33
3 4 2 5 2 2 8 6 8 4 6 9 8 3 5 6 6 6 9 11 14 17 18 19 20 21 23 24 25 26 26 27 27 27 28 28 29 30 30 29 30 30 31 32
2 2 7 2 3 4 4 5 2 7 9 9 5 2 3 6 5 6 8 10 13 14 17 20 22 24 26 27 28 30 32 32 31 31 31 32 32 32 32 32 33 33 33 32
2 2 5 3 3 3 2 4 6 13 8 5 3 1 2 4 5 5 6 8 13 16 20 23 26 28 32 34 35 36 36 36 36 35 34 34 33 33 32 31 33 33 33 32
3 3 7 6 6 3 2 4 12 9 7 6 4 5 2 3 3 5 8 12 16 19 22 25 28 30 33 36 37 37 38 38 38 38 38 37 36 34 34 32 31 32 31 30
4 4 9 12 5 6 4 13 13 8 5 5 5 4 2 2 4 8 12 15 18 22 26 29 32 34 36 38 39 40 41 42 42 42 41 38 37 38 37 36 35 34 31 30
9 7 6 22 3 7 11 13 8 7 6 6 5 3 2 4 9 12 16 20 23 27 31 34 37 38 42 44 43 43 44 44 43 42 42 39 38 37 37 35 35 36 33 32
2 6 9 14 11 12 11 9 9 8 8 6 4 2 2 6 11 16 19 24 28 31 34 37 39 39 41 43 44 45 46 46 44 43 42 42 43 39 37 36 34 35 34 33
5 4 1 12 15 15 12 11 10 9 7 6 3 2 5 9 14 18 23 27 30 33 35 39 40 42 43 43 43 44 43 44 45 46 46 46 43 41 37 36 34 35 32 30
6 9 6 7 19 17 14 12 10 9 7 5 3 5 8 13 17 22 26 29 32 34 37 41 42 44 44 41 39 40 42 43 44 45 43 44 45 46 38 37 34 32 30 29
11 7 7 8 17 15 13 12 10 8 5 3 4 8 12 17 20 24 27 30 33 35 38 41 43 44 45 41 38 37 38 39 39 40 41 41 41 41 42 39 37 31 29 28
10 10 11 17 11 15 12 10 8 5 4 6 9 12 15 20 23 25 29 32 34 36 40 43 44 49 45 41 39 37 37 37 39 40 41 43 42 40 39 38 37 36 29 30
10 10 6 11 9 14 12 8 6 5 7 11 13 17 20 24 27 30 32 34 36 39 43 45 45 47 43 39 38 37 38 39 40 40 40 39 38 39 38 37 35 33 32 31
12 8 7 14 16 13 8 4 7 10 13 16 21 23 25 28 32 34 36 38 38 41 44 44 44 44 41 36 36 37 39 41 38 37 38 37 36 36 37 35 33 32 32 33
13 14 15 14 10 6 3 7 11 15 20 23 27 30 32 35 36 37 38 39 38 42 44 44 45 41 38 35 34 35 36 38 37 35 37 37 35 35 35 33 33 33 32 30
9 13 11 8 4 1 6 12 18 22 25 29 33 36 38 38 39 40 40 40 40 44 44 44 43 38 37 35 31 32 33 36 37 38 38 37 37 34 34 33 32 32 31 29
10 10 6 3 2 8 16 23 29 31 31 32 36 40 40 39 39 41 42 40 42 46 47 43 40 37 39 35 32 36 35 36 38 40 39 38 36 35 34 32 31 29 29 28
8 5 3 6 11 21 27 31 34 34 33 34 36 38 39 39 39 42 42 41 42 44 44 40 40 40 37 37 37 38 38 38 39 41 39 38 37 36 35 33 29 28 26 26
5 12 17 23 29 33 32 32 33 37 39 38 40 42 42 42 41 41 40 40 40 41 38 39 39 38 38 40 41 40 39 40 40 40 41 37 37 36 35 35 29 27 25 24
16 22 28 33 34 34 36 37 38 39 40 39 40 41 42 42 39 38 34 37 38 39 39 41 41 40 41 40 41 41 40 40 40 39 37 36 35 34 34 32 29 25 24 22
23 26 29 30 33 38 39 39 40 42 40 39 39 40 40 40 38 36 35 36 37 40 41 42 39 40 40 41 40 40 39 37 36 36 36 35 35 32 33 30 27 24 23 20
26 27 29 31 35 37 40 42 41 39 38 37 37 36 36 37 36 32 33 37 39 41 40 39 37 39 40 40 39 37 36 37 39 40 36 35 31 31 32 29 24 21 21 18
29 31 33 35 36 37 38 37 36 37 35 35 36 36 35 34 31 34 34 38 40 40 41 39 38 40 39 38 36 37 34 40 39 34 33 27 29 33 29 25 20 19 18 15
33 34 34 34 34 33 33 33 34 36 36 36 36 35 32 31 31 33 36 39 40 40 39 38 38 41 38 36 37 43 41 35 34 30 26 29 28 25 23 19 16 14 14 14
33 31 30 30 31 31 32 32 33 36 36 36 36 34 31 29 30 33 38 39 38 40 38 36 40 39 34 37 44 37 34 33 29 26 23 23 22 20 16 14 12 11 11 11
Wind_Direction
274 267 257 223 216 210 205 193 185 250 204 168 180 157 162 31 360 358 3 344 341 344 350 350 347 348 347 343 328 318 314 314 311 305 303 303 303 302 300 296 293 291 287 284
290 282 221 254 245 229 228 229 247 264 274 187 153 149 46 14 4 6 350 351 358 359 358 358 358 358 357 354 349 342 332 325 319 314 308 305 304 302 296 292 290 287 285 284
274 354 330 295 237 219 200 200 215 230 220 181 131 70 52 41 19 7 7 8 9 9 10 9 9 8 8 4 358 352 346 340 334 327 320 316 311 307 301 296 293 288 285 283
252 357 286 245 189 169 203 234 209 137 144 138 127 104 119 55 27 15 10 9 11 9 10 10 5 1 358 356 353 348 344 341 338 335 331 328 322 313 304 299 294 291 288 286
143 224 286 254 218 202 184 226 241 170 144 145 121 110 151 38 27 6 359 3 5 9 10 9 3 358 354 352 351 349 345 341 336 331 326 324 322 320 312 302 294 289 287 285
154 192 244 248 206 182 140 277 171 144 146 117 72 109 215 357 345 358 3 5 2 2 2 359 356 350 344 340 336 334 329 325 323 322 320 316 314 314 313 307 300 292 286 282
210 247 285 234 181 140 120 240 163 148 140 162 178 196 229 294 331 353 358 356 353 352 349 348 345 339 334 331 330 323 320 316 314 313 315 312 311 307 307 305 299 294 289 286
163 203 268 165 127 177 181 151 163 162 177 182 198 217 245 324 353 353 350 348 346 340 339 340 339 334 330 328 327 324 322 319 317 317 318 317 315 313 309 306 301 297 291 285
189 214 238 191 223 186 163 162 172 183 180 179 182 192 304 336 346 348 342 339 340 337 335 336 336 334 331 330 328 327 323 320 319 317 316 317 317 312 311 306 302 299 294 287
161 233 211 208 203 182 185 180 179 177 178 182 181 209 304 330 337 334 336 337 338 335 332 331 334 332 329 327 325 322 321 320 320 319 317 315 314 314 309 306 300 298 294 287
258 273 120 199 204 197 181 174 170 170 177 181 195 281 324 326 326 330 333 335 334 331 329 328 329 328 326 323 323 321 319 318 317 315 313 311 309 309 307 301 298 295 291 287
230 218 211 213 207 193 184 181 181 181 180 197 243 299 310 319 329 330 330 332 329 328 327 326 327 326 327 327 326 320 316 314 312 311 311 311 313 311 306 301 298 290 287 284
240 215 216 189 180 187 190 187 187 190 206 232 280 306 318 320 326 325 324 325 325 324 324 325 326 327 329 329 323 318 315 314 315 315 316 317 316 314 313 309 306 296 286 281
201 175 142 171 187 194 199 187 192 209 240 283 308 317 315 312 315 316 320 324 323 323 323 323 325 329 329 326 323 319 317 316 316 317 316 314 311 310 311 309 306 302 294 284
221 222 231 206 193 181 180 188 213 257 291 302 307 308 310 308 310 315 319 321 322 324 323 322 321 326 328 324 322 319 317 315 317 316 310 308 302 301 306 307 304 300 297 289
204 224 203 183 170 174 190 231 280 298 302 307 307 310 310 308 308 313 319 321 320 317 315 318 321 326 325 321 319 317 318 315 312 310 312 313 311 308 307 308 305 298 294 292
188 158 159 158 170 188 249 304 311 313 314 312 312 309 307 306 307 309 312 312 312 311 314 318 323 322 324 322 319 317 318 318 319 315 312 318 318 318 313 308 303 298 295 295
225 178 164 156 148 0 338 334 328 322 317 314 311 307 303 304 305 309 311 311 311 311 316 322 322 318 317 318 317 319 318 318 318 318 319 319 318 317 316 309 304 299 297 296
171 159 151 127 45 348 336 330 327 320 313 309 305 304 306 305 307 309 309 309 310 310 320 322 319 313 311 316 320 319 320 318 314 313 315 315 314 314 315 313 308 302 297 293
124 109 8 327 319 324 322 323 324 316 310 309 310 311 310 310 310 308 308 306 306 313 322 321 319 314 312 312 318 320 317 316 315 313 310 308 307 304 308 314 308 304 296 287
249 316 314 314 309 306 312 320 317 310 309 309 310 308 309 308 308 307 306 305 311 320 321 322 325 317 314 316 320 317 312 312 311 312 306 307 310 306 305 306 307 305 298 287
273 282 285 290 298 302 308 307 305 307 313 312 307 305 305 304 306 308 304 307 322 324 324 323 322 317 316 318 316 313 311 311 307 308 306 306 309 307 308 303 302 301 298 286
286 288 290 295 297 298 301 303 307 311 310 309 310 310 310 309 308 306 306 315 322 327 324 319 320 319 320 320 317 314 311 309 311 311 309 308 307 304 305 302 298 298 295 285
298 298 298 298 301 304 304 308 312 312 313 314 313 314 315 316 313 310 316 317 322 323 320 319 322 324 322 318 316 313 312 308 309 309 307 305 302 302 302 300 294 294 292 281
297 298 297 300 303 302 306 310 314 314 315 314 315 316 318 319 317 319 322 321 320 319 320 319 321 318 320 321 320 317 309 302 309 303 301 302 299 298 296 293 290 291 287 277
297 297 299 300 299 301 304 306 305 309 309 309 312 312 314 316 317 321 323 322 320 320 319 321 318 318 319 321 316 310 312 316 316 314 303 298 299 297 294 291 285 282 280 275
297 296 297 302 305 308 309 308 305 306 308 304 303 304 308 310 316 319 322 321 320 319 321 320 319 320 317 309 317 317 321 322 322 319 314 309 305 301 293 285 280 273 267 259